This is the latest recevied weather packets stored in our database for station/object VK4TOM-13. If no packets are shown the sender has not sent any weather packets the latest 10 day(s).
| Time | Temp. | Humidity | Pressure | Rain* | Wind** | Luminosity | Snow |
|---|---|---|---|---|---|---|---|
| 1777513359 | 27.78° C | 70% | 1021 hPa | 0 mm | - | - | - |
| 1777512758 | 27.22° C | 70% | 1021.2 hPa | 0 mm | - | - | - |
| 1777512513 | 27.22° C | 70% | 1021.3 hPa | 0 mm | - | - | - |
| 1777511997 | 27.22° C | 70% | 1021.4 hPa | 0 mm | - | - | - |
| 1777511720 | 27.22° C | 70% | 1021.4 hPa | 0 mm | - | - | - |
| 1777511313 | 27.78° C | 70% | 1021.6 hPa | 0 mm | - | - | - |
| 1777510712 | 28.33° C | 70% | 1021.5 hPa | 0 mm | - | - | - |
| 1777509887 | 27.78° C | 70% | 1021.7 hPa | 0 mm | - | - | - |
| 1777509696 | 27.78° C | 70% | 1021.7 hPa | 0 mm | - | - | - |
| 1777509452 | 27.78° C | 70% | 1021.8 hPa | 0 mm | - | - | - |
| 1777509263 | 27.78° C | 70% | 1021.9 hPa | 0 mm | - | - | - |
| 1777508751 | 27.22° C | 70% | 1021.9 hPa | 0 mm | - | - | - |
| 1777508249 | 26.67° C | 70% | 1022.1 hPa | 0 mm | - | - | - |
| 1777507467 | 26.11° C | 70% | 1022.3 hPa | 0 mm | - | - | - |
| 1777507122 | 25.56° C | 70% | 1022.2 hPa | 0 mm | - | - | - |
| 1777506904 | 25.56° C | 70% | 1022.2 hPa | 0 mm | - | - | - |
| 1777506555 | 25.56° C | 70% | 1022.4 hPa | 0 mm | - | - | - |
| 1777506371 | 25.56° C | 70% | 1022.3 hPa | 0 mm | - | - | - |
| 1777505958 | 25.56° C | 70% | 1022.2 hPa | 0 mm | - | - | - |
| 1777505777 | 25.56° C | 70% | 1022.5 hPa | 0 mm | - | - | - |
| 1777505597 | 25.56° C | 70% | 1022.4 hPa | 0 mm | - | - | - |
| 1777505157 | 25.56° C | 70% | 1022.3 hPa | 0 mm | - | - | - |
| 1777504266 | 25° C | 70% | 1022.3 hPa | 0 mm | - | - | - |
| 1777503665 | 25° C | 70% | 1022.2 hPa | 0 mm | - | - | - |
| 1777503064 | 24.44° C | 70% | 1022.2 hPa | 0 mm | - | - | - |
* Rain since midnight (hover to see other rain measurements)
** Current wind speed in m/s (hover to see current wind gust speed)